Location: Asheville, NC
(35.6000°N, 82.5500°W)
Time: 10:35:51

Vanguard 2 Rocket - Pass Details

Date: 10 March 2018
Orbit: 554 x 3327 km, 32.9° (Epoch: 18 March)

Event Time Altitude Azimuth Distance (km) Brightness Sun altitude
Rises 22:47:49 0° 276° (W) 3,778 10.5 -48.9°
Reaches altitude 10° 22:50:05 10° 270° (W) 3,079 9.9 -49.2°
Enters shadow 22:50:46 14° 268° (W) 2,889 9.7 -49.3°
Maximum altitude 22:57:37 50° 198° (SSW) 2,065 - -50.3°
Drops below altitude 10° 23:10:46 10° 129° (SE) 5,229 - -52.0°
Sets 23:15:55 0° 125° (SE) 6,628 - -52.7°
